Location: Newark
(43.0000°N, 1.6781°W)
Time: 07:17:29
(UTC+00:00)

Transit 4A - All Passes

Search period start: 20 April 2021 00:00
Search period end: 30 April 2021 00:00
Orbit: 869 x 975 km, 66.8° (Epoch: 19 April)

Date Brightness Start Highest point End Pass type
(mag) Time Alt. Az. Time Alt. Az. Time Alt. Az.
20 Apr - 00:54:28 10° WSW 00:59:51 30° NW 01:05:10 10° NNE visible
20 Apr - 06:23:54 10° N 06:27:33 16° NE 06:31:11 10° ENE daylight
20 Apr - 08:09:08 10° NNW 08:15:02 71° ENE 08:20:49 10° SE daylight
20 Apr - 09:56:51 10° WNW 10:00:41 18° WSW 10:04:31 10° SW daylight
20 Apr - 21:34:16 10° SE 21:36:59 13° ESE 21:39:41 10° ENE visible
20 Apr - 23:16:09 10° SSW 23:22:25 82° ESE 23:28:34 10° NNE visible
21 Apr - 01:04:43 10° W 01:09:29 23° NW 01:14:11 10° N visible
21 Apr - 06:32:48 10° N 06:37:18 22° NE 06:41:42 10° E daylight
21 Apr - 08:18:26 10° NNW 08:24:20 80° WSW 08:30:08 10° SSE daylight
21 Apr - 10:07:56 10° W 10:09:39 11° W 10:11:22 10° WSW daylight
21 Apr - 21:41:33 10° SSE 21:45:58 20° ESE 21:50:20 10° ENE visible
21 Apr - 23:25:30 10° SW 23:31:45 71° WNW 23:37:52 10° NNE visible
22 Apr - 01:15:15 10° WNW 01:19:12 17° NW 01:23:06 10° N visible
22 Apr - 06:41:50 10° NNW 06:46:55 29° NE 06:51:55 10° ESE daylight
22 Apr - 08:27:51 10° NW 08:33:34 54° WSW 08:39:11 10° S daylight
22 Apr - 21:49:42 10° SSE 21:55:02 30° ESE 22:00:17 10° NE visible
22 Apr - 23:35:06 10° SW 23:41:09 50° NW 23:47:05 10° NNE visible
23 Apr - 01:26:09 10° WNW 01:29:00 13° NNW 01:31:50 10° N visible
23 Apr - 05:06:53 10° NNE 05:08:18 11° NNE 05:09:43 10° NE daylight
23 Apr - 06:50:55 10° NNW 06:56:27 40° NE 07:01:53 10° ESE daylight
23 Apr - 08:37:26 10° NW 08:42:43 36° WSW 08:47:56 10° S daylight
23 Apr - 21:58:17 10° S 22:04:10 44° ESE 22:09:57 10° NE visible
23 Apr - 23:44:56 10° WSW 23:50:38 36° NW 23:56:13 10° NNE visible
24 Apr - 01:37:57 10° NW 01:38:54 10° NNW 01:39:50 10° NNW visible
24 Apr - 05:15:12 10° N 05:18:10 14° NNE 05:21:07 10° ENE daylight
24 Apr - 07:00:06 10° NNW 07:05:54 56° NE 07:11:36 10° SE daylight
24 Apr - 08:47:14 10° NW 08:51:48 24° WSW 08:56:19 10° SSW daylight
24 Apr - 22:07:12 10° SSW 22:13:23 65° ESE 22:19:26 10° NE visible
24 Apr - 23:55:01 10° W 00:00:12 27° NW 00:05:17 10° NNE visible
25 Apr - 05:23:59 10° N 05:27:57 18° NE 05:31:52 10° E daylight
25 Apr - 07:09:20 10° NNW 07:15:16 81° ENE 07:21:04 10° SSE daylight
25 Apr - 08:57:31 10° WNW 09:00:49 16° WSW 09:04:05 10° SW daylight
25 Apr - 20:33:39 10° SE 20:37:06 15° ESE 20:40:31 10° ENE visible
25 Apr - 22:16:24 10° SSW 22:22:40 88° WNW 22:28:47 10° NNE visible
26 Apr - 00:05:22 10° W 00:09:52 20° NW 00:14:17 10° N visible
26 Apr - 05:32:55 10° N 05:37:38 24° NE 05:42:16 10° E daylight
26 Apr - 07:18:42 10° NW 07:24:33 70° WSW 07:30:18 10° SSE daylight
26 Apr - 20:41:20 10° SSE 20:46:07 23° ESE 20:50:50 10° NE visible
26 Apr - 22:25:50 10° SW 22:32:00 63° NW 22:38:04 10° NNE visible
27 Apr - 00:16:02 10° WNW 00:19:36 16° NW 00:23:08 10° N visible
27 Apr - 05:41:59 10° NNW 05:47:14 32° NE 05:52:24 10° ESE daylight
27 Apr - 07:28:10 10° NW 07:33:44 47° WSW 07:39:15 10° S daylight
27 Apr - 20:49:39 10° S 20:55:13 35° ESE 21:00:40 10° NE visible
27 Apr - 22:35:31 10° WSW 22:41:26 45° NW 22:47:15 10° NNE visible
28 Apr - 00:27:08 10° NW 00:29:26 12° NNW 00:31:43 10° N visible
28 Apr - 04:06:40 10° N 04:08:44 12° NNE 04:10:48 10° NE visible
28 Apr - 05:51:05 10° NNW 05:56:44 45° NE 06:02:16 10° SE daylight
28 Apr - 07:37:49 10° NW 07:42:52 31° WSW 07:47:53 10° S daylight
28 Apr - 20:58:22 10° S 21:04:23 51° ESE 21:10:15 10° NE visible
28 Apr - 22:45:26 10° WSW 22:50:57 32° NW 22:56:22 10° NNE visible
29 Apr - 04:15:13 10° N 04:18:35 15° NNE 04:21:53 10° ENE visible
29 Apr - 06:00:18 10° NNW 06:06:09 64° NE 06:11:54 10° SE daylight
29 Apr - 07:47:44 10° WNW 07:51:55 21° WSW 07:56:05 10° SSW daylight
29 Apr - 19:26:29 10° ESE 19:28:15 11° E 19:30:00 10° E daylight
29 Apr - 21:07:23 10° SSW 21:13:36 74° ESE 21:19:41 10° NE visible
29 Apr - 22:55:37 10° W 23:00:33 24° NW 23:05:25 10° N visible
